Location: Slidell
(30.2789°N, 89.7378°W)
Time: 19:40:06
(UTC-05:00)

Cosmos 2360 Rocket - Visible Passes

Search period start: 22 October 2014 00:00
Search period end: 01 November 2014 00:00
Orbit: 833 x 847 km, 71.0° (Epoch: 22 October)

Date Brightness Start Highest point End Pass type
(mag) Time Alt. Az. Time Alt. Az. Time Alt. Az.
22 Oct 3.7 05:03:42 23° S 05:03:42 23° S 05:05:46 10° S visible
22 Oct 5.2 19:44:43 10° WNW 19:45:45 10° NW 19:46:46 10° NW visible
23 Oct 4.6 04:50:11 10° S 04:50:11 10° S 04:50:14 10° S visible
23 Oct 5.1 19:28:21 10° WNW 19:30:06 11° WNW 19:31:51 10° NW visible
24 Oct 5.0 19:12:13 10° W 19:14:27 12° WNW 19:16:42 10° NNW visible
25 Oct 4.9 18:56:12 10° W 18:58:49 13° WNW 19:01:27 10° NNW visible
26 Oct 4.8 18:40:14 10° W 18:43:11 14° WNW 18:46:09 10° NNW visible
